sat.trackr.live / text

‹ back to catalog

JILIN-1 GAOFEN 3D27

NORAD 52444 · 2022-048B

PAYLOAD ACTIVE UNKNOWN

§ Identity

Operator
Country
PRC
Launch date
2022-05-05
Launch site
TAISC
Launch vehicle
Mass (kg)
RCS (m²)

External: N2YO · Heavens-Above · Gunter

§ Orbital elements

Epoch: 2026-09-01T14:42:27.738720Z

Period
87.85 min
Inclination
97.5755°
Eccentricity
0.0013223
Mean motion
16.39244389 rev/d
Perigee alt
159.2 km
Apogee alt
176.5 km
Semi-major
6,546.0 km
B*
5.7698e-4
RAAN
7.3594°
Arg perigee
276.9330°
Mean anomaly
83.0464°
Rev number
24,162

§ Raw data

JILIN-1 GAOFEN 3D271 52444U 22048B   26244.61282105  .06758385  26511-5  57698-3 0  99982 52444  97.5755   7.3594 0013223 276.9330  83.0464 16.39244389241627

JSON: /api/v1/satellites/52444 · /tle

For live sub-satellite position, see the globe view (requires WebGL).

§ Visibility from observer

Set your observer location to see the next 7 days of passes ≥ 10°. The values pass through the URL so the page stays shareable.

No JS? Fill the form by hand. The geolocation button needs JavaScript.

§ Radio — SatNOGS DB

ModeDescriptionDownlinkUplink
FM Jillin Mysterious Pip 1.616 GHz

1 transmitter · refreshed weekly from db.satnogs.org